Weather History for Minneapolis, MN

Change the Weather History Date:

Wednesday, October 16, 2013

  Actual Average Record
Temperature  
Mean Temperature 49 °F 49 °F  
Max Temperature 55 °F 58 °F 86 °F (1938)
Min Temperature 42 °F 40 °F 23 °F (1952)
Degree Days  
Heating Degree Days 16 16  
Month to date heating degree days 129 213  
Since 1 July heating degree days 195 386  
Cooling Degree Days 0 0  
Month to date cooling degree days 2 3  
Year to date cooling degree days 983 750  
Moisture  
Dew Point 41 °F    
Average Humidity 75    
Maximum Humidity 100    
Minimum Humidity 50    
Precipitation  
Precipitation 0.01 in 0.08 in 2.10 in (1984)
Month to date precipitation 2.51 1.42  
Year to date precipitation 30.30 26.67  
Snow  
Snow 0.00 in 0.10 in 0.50 in (1992)
Month to date snowfall 0.0 0.1  
Since 1 July snowfall T 0.1  
Since 1 September snowfall 0.0 0.1  
Snow Depth 0.00 in    
Sea Level Pressure  
Sea Level Pressure 29.91 in    
Wind  
Wind Speed 8 mph (NW)    
Max Wind Speed 18 mph    
Max Gust Speed 24 mph    
Visibility 9 miles    
Events Rain    
T = Trace of Precipitation, MM = Missing Value Source: NWS Daily Summary

Daily Weather History Graph

Daily Weather History Graph

Search for Another Location

Airport:

Trip Planner

Search our weather history database for the weather conditions in past years. The results will help you decide how hot, cold, wet, or windy it might be!

Date:

Astronomy

Oct. 16, 2013 Rise Set
Actual Time 7:30 AM CDT 6:25 PM CDT
Civil Twilight 7:00 AM CDT 6:55 PM CDT
Nautical Twilight 6:26 AM CDT 7:29 PM CDT
Astronomical Twilight 5:52 AM CDT 8:03 PM CDT
Moon 5:10 PM CDT (10/16) 4:53 AM CDT (10/16)
Length of Visible Light 11h 54m
Length of Day
10h 55m
Waxing Gibbous, 94% of the Moon is Illuminated
Oct 16
Waxing Gibbous
Oct 18
Full
Oct 26
Last Quarter
Nov 3
New
Nov 9
First Quarter

Hourly Weather History & Observations

Time (CDT) Temp. Windchill Dew Point Humidity Pressure Visibility Wind Dir Wind Speed Gust Speed Precip Events Conditions
12:12 AM 46.4 °F 40.7 °F 46.4 °F 100% 29.82 in 5.0 mi NNW 12.7 mph - 0.00 in   Light Drizzle
12:53 AM 46.0 °F 40.6 °F 45.0 °F 96% 29.84 in 10.0 mi NNW 11.5 mph - 0.00 in   Overcast
1:50 AM 46.4 °F 40.4 °F 44.6 °F 93% 29.85 in 6.0 mi NNW 13.8 mph - 0.00 in Rain Light Rain
1:53 AM 46.0 °F 40.2 °F 44.1 °F 93% 29.87 in 7.0 mi NNW 12.7 mph - 0.00 in Rain Light Rain
2:19 AM 44.6 °F 37.8 °F 44.6 °F 100% 29.86 in 3.0 mi NNW 15.0 mph - 0.00 in Rain Light Rain
2:39 AM 44.6 °F 39.2 °F 44.6 °F 100% 29.87 in 4.0 mi NNW 10.4 mph 20.7 mph 0.00 in Rain Light Rain
2:53 AM 45.0 °F 38.9 °F 44.1 °F 97% 29.88 in 5.0 mi NNW 12.7 mph 20.7 mph 0.01 in Rain Light Rain
3:25 AM 44.6 °F 39.2 °F 44.6 °F 100% 29.87 in 5.0 mi NNW 10.4 mph 21.9 mph 0.00 in Rain Light Rain
3:53 AM 45.0 °F 38.5 °F 44.1 °F 97% 29.89 in 4.0 mi NNW 13.8 mph - 0.00 in   Light Drizzle
4:53 AM 45.0 °F 38.9 °F 43.0 °F 93% 29.90 in 6.0 mi NNW 12.7 mph - 0.00 in   Overcast
5:32 AM 44.6 °F 40.2 °F 42.8 °F 93% 29.89 in 10.0 mi North 8.1 mph - N/A   Overcast
5:53 AM 45.0 °F 40.1 °F 43.0 °F 93% 29.91 in 10.0 mi NNW 9.2 mph - N/A   Overcast
6:31 AM 44.6 °F 39.7 °F 42.8 °F 93% 29.90 in 10.0 mi NNW 9.2 mph - N/A   Overcast
6:53 AM 45.0 °F 41.2 °F 42.1 °F 90% 29.92 in 10.0 mi NNW 6.9 mph - N/A   Overcast
7:07 AM 44.6 °F 39.7 °F 42.8 °F 93% 29.91 in 10.0 mi NNW 9.2 mph - N/A   Overcast
7:16 AM 44.6 °F 40.2 °F 42.8 °F 93% 29.91 in 10.0 mi NNW 8.1 mph - N/A   Overcast
7:53 AM 45.0 °F 39.3 °F 42.1 °F 90% 29.94 in 10.0 mi NNW 11.5 mph - N/A   Overcast
8:10 AM 44.6 °F 39.7 °F 42.8 °F 93% 29.93 in 10.0 mi NW 9.2 mph - N/A   Overcast
8:53 AM 45.0 °F 40.1 °F 41.0 °F 86% 29.95 in 10.0 mi NNW 9.2 mph - N/A   Overcast
9:07 AM 44.6 °F 40.2 °F 41.0 °F 87% 29.94 in 10.0 mi NNW 8.1 mph - N/A   Overcast
9:53 AM 46.0 °F 42.5 °F 41.0 °F 83% 29.96 in 10.0 mi WNW 6.9 mph - N/A   Overcast
10:24 AM 44.6 °F 39.7 °F 41.0 °F 87% 29.95 in 10.0 mi NW 9.2 mph - N/A   Overcast
10:53 AM 45.0 °F 40.1 °F 39.9 °F 82% 29.97 in 10.0 mi NW 9.2 mph - N/A   Overcast
11:39 AM 46.4 °F 42.9 °F 39.2 °F 76% 29.95 in 10.0 mi WNW 6.9 mph - N/A   Overcast
11:53 AM 45.0 °F 40.6 °F 39.0 °F 80% 29.97 in 10.0 mi West 8.1 mph - N/A   Overcast
12:53 PM 48.0 °F - 39.0 °F 71% 29.96 in 10.0 mi NW 9.2 mph - N/A   Overcast
1:53 PM 51.1 °F - 39.0 °F 63% 29.94 in 10.0 mi WNW 9.2 mph - N/A   Mostly Cloudy
2:20 PM 51.8 °F - 37.4 °F 58% 29.92 in 10.0 mi WNW 8.1 mph - N/A   Scattered Clouds
2:53 PM 53.1 °F - 37.0 °F 55% 29.92 in 10.0 mi NW 6.9 mph - N/A   Scattered Clouds
3:53 PM 54.0 °F - 36.0 °F 51% 29.91 in 10.0 mi West 8.1 mph - N/A   Partly Cloudy
4:53 PM 54.0 °F - 37.0 °F 53% 29.91 in 10.0 mi WNW 6.9 mph - N/A   Partly Cloudy
5:53 PM 53.1 °F - 37.0 °F 55% 29.91 in 10.0 mi West 10.4 mph - N/A   Partly Cloudy
6:53 PM 50.0 °F - 35.1 °F 57% 29.91 in 10.0 mi WSW 4.6 mph - N/A   Clear
7:53 PM 46.9 °F - 36.0 °F 66% 29.92 in 10.0 mi Calm Calm - N/A   Clear
8:53 PM 46.9 °F - 37.0 °F 68% 29.92 in 10.0 mi Calm Calm - N/A   Clear
9:53 PM 45.0 °F 42.6 °F 37.0 °F 74% 29.91 in 10.0 mi SSW 4.6 mph - N/A   Clear
10:53 PM 43.0 °F 41.3 °F 36.0 °F 76% 29.91 in 9.0 mi South 3.5 mph - N/A   Clear
11:53 PM 43.0 °F - 36.0 °F 76% 29.90 in 10.0 mi Calm Calm - N/A   Clear